Weather History for Rochester, NH

Change the Weather History Date:

Saturday, February 9, 2013

  Actual Average (KSFM) Record (KSFM)
Temperature  
Mean Temperature -8 °C -  
Max Temperature -5 °C 0 °C 7 °C (2005)
Min Temperature -11 °C -11 °C -17 °C (1997)
Degree Days  
Heating Degree Days 48    
Moisture  
Dew Point -12 °C    
Average Humidity 73    
Maximum Humidity 86    
Minimum Humidity 56    
Precipitation  
Precipitation 4.32 mm - - ()
Sea Level Pressure  
Sea Level Pressure 1009 hPa    
Wind  
Wind Speed 34 km/h (NNW)    
Max Wind Speed 45 km/h    
Max Gust Speed 71 km/h    
Visibility 4 kilometers    
Events Fog , Snow    
Averages and records for this station are not official NWS values.
T = Trace of Precipitation, MM = Missing Value Source: NWS Daily Summary

Daily Weather History Graph

Daily Weather History Graph

Search for Another Location

Airport:

Trip Planner

Search our weather history database for the weather conditions in past years. The results will help you decide how hot, cold, wet, or windy it might be!

Date:

Astronomy

Feb. 09, 2013 Rise Set
Actual Time 6:49 AM EST 5:06 PM EST
Civil Twilight 6:19 AM EST 5:36 PM EST
Nautical Twilight 5:46 AM EST 6:10 PM EST
Astronomical Twilight 5:13 AM EST 6:43 PM EST
Moon 5:58 AM EST (2/9) 4:46 PM EST (2/9)
Length of Visible Light 11h 16m
Length of Day
10h 17m
Waning Crescent, 0% of the Moon is Illuminated
Feb 9
Waning Crescent
Feb 10
New
Feb 17
First Quarter
Feb 25
Full
Mar 4
Last Quarter

Hourly Weather History & Observations

Time (EST) Temp. Windchill Dew Point Humidity Pressure Visibility Wind Dir Wind Speed Gust Speed Precip Events Conditions
12:11 AM -10.0 °C -19.9 °C -13.0 °C 79% 1006.3 hPa 0.8 km North 33.3 km/h / 9.3 m/s 57.4 km/h / 15.9 m/s N/A   Haze
12:29 AM -11.0 °C -21.7 °C -13.0 °C 85% 1005.6 hPa 1.6 km North 37.0 km/h / 10.3 m/s 61.1 km/h / 17.0 m/s 0.0 mm Snow Light Snow
12:37 AM -11.0 °C -21.3 °C -13.0 °C 85% 1005.6 hPa 1.2 km North 33.3 km/h / 9.3 m/s 55.6 km/h / 15.4 m/s 0.0 mm Snow Light Snow
12:51 AM -10.6 °C -21.0 °C -12.8 °C 84% 1005.7 hPa 0.8 km North 35.2 km/h / 9.8 m/s 50.0 km/h / 13.9 m/s 0.3 mm Fog , Snow Snow
12:59 AM -11.0 °C -21.7 °C -13.0 °C 85% 1005.3 hPa 0.4 km North 37.0 km/h / 10.3 m/s 55.6 km/h / 15.4 m/s 0.0 mm Fog Light Freezing Fog
1:09 AM -11.0 °C -21.9 °C -13.0 °C 85% 1004.6 hPa 0.4 km North 38.9 km/h / 10.8 m/s 59.3 km/h / 16.5 m/s 0.3 mm Fog Light Freezing Fog
1:30 AM -11.0 °C -21.3 °C -13.0 °C 85% 1004.6 hPa 0.8 km North 33.3 km/h / 9.3 m/s 59.3 km/h / 16.5 m/s 0.3 mm Fog Light Freezing Fog
1:47 AM -10.0 °C -19.9 °C -13.0 °C 79% 1005.0 hPa 0.8 km North 33.3 km/h / 9.3 m/s 55.6 km/h / 15.4 m/s 0.5 mm   Haze
1:51 AM -10.0 °C -19.9 °C -12.8 °C 80% 1005.4 hPa 0.8 km North 33.3 km/h / 9.3 m/s 55.6 km/h / 15.4 m/s 0.5 mm   Haze
2:11 AM -10.0 °C -19.7 °C -12.0 °C 86% 1005.0 hPa 0.8 km North 31.5 km/h / 8.7 m/s 55.6 km/h / 15.4 m/s N/A Fog Light Freezing Fog
2:33 AM -10.0 °C -20.2 °C -13.0 °C 79% 1004.6 hPa 0.4 km North 35.2 km/h / 9.8 m/s 66.7 km/h / 18.5 m/s 0.3 mm   Haze
2:51 AM -10.0 °C -20.6 °C -12.2 °C 84% 1004.3 hPa 0.4 km North 38.9 km/h / 10.8 m/s 63.0 km/h / 17.5 m/s 0.5 mm Fog Light Freezing Fog
3:51 AM -10.0 °C -20.4 °C -12.2 °C 84% 1004.3 hPa 0.4 km North 37.0 km/h / 10.3 m/s 66.7 km/h / 18.5 m/s 0.8 mm Fog Light Freezing Fog
4:51 AM -9.4 °C -19.1 °C -11.7 °C 84% 1003.4 hPa 0.8 km North 33.3 km/h / 9.3 m/s 61.1 km/h / 17.0 m/s 0.8 mm Fog Light Freezing Fog
5:06 AM -9.0 °C -19.3 °C -12.0 °C 79% 1002.9 hPa 0.8 km NNW 38.9 km/h / 10.8 m/s 66.7 km/h / 18.5 m/s N/A Fog Light Freezing Fog
5:51 AM -8.9 °C -18.3 °C -11.7 °C 81% 1003.8 hPa 0.8 km North 31.5 km/h / 8.7 m/s 63.0 km/h / 17.5 m/s 0.3 mm   Haze
6:51 AM -8.9 °C -18.9 °C -11.1 °C 84% 1004.4 hPa 0.8 km North 37.0 km/h / 10.3 m/s 57.4 km/h / 15.9 m/s 0.5 mm Fog Light Freezing Fog
7:51 AM -8.3 °C -17.0 °C -11.1 °C 81% 1005.3 hPa 1.2 km North 27.8 km/h / 7.7 m/s 55.6 km/h / 15.4 m/s 0.3 mm   Haze
8:27 AM -8.0 °C -17.9 °C -11.0 °C 79% 1005.3 hPa 0.4 km North 38.9 km/h / 10.8 m/s 57.4 km/h / 15.9 m/s N/A Fog Light Freezing Fog
8:51 AM -7.8 °C -16.8 °C -10.6 °C 81% 1006.1 hPa 0.4 km NNW 31.5 km/h / 8.7 m/s 55.6 km/h / 15.4 m/s 0.3 mm   Haze
9:00 AM -8.0 °C -17.7 °C -11.0 °C 79% 1005.6 hPa 0.4 km NNW 37.0 km/h / 10.3 m/s 53.7 km/h / 14.9 m/s N/A   Haze
9:16 AM -8.0 °C -17.1 °C -11.0 °C 79% 1006.0 hPa 0.8 km NNW 31.5 km/h / 8.7 m/s 53.7 km/h / 14.9 m/s N/A   Haze
9:51 AM -7.8 °C -17.3 °C -10.6 °C 81% 1007.0 hPa 0.8 km NNW 35.2 km/h / 9.8 m/s 53.7 km/h / 14.9 m/s N/A   Haze
10:10 AM -8.0 °C -16.8 °C -10.0 °C 86% 1007.0 hPa 0.4 km North 29.6 km/h / 8.2 m/s 50.0 km/h / 13.9 m/s N/A Fog Light Freezing Fog
10:43 AM -7.0 °C -15.8 °C -10.0 °C 80% 1007.3 hPa 0.8 km North 31.5 km/h / 8.7 m/s 53.7 km/h / 14.9 m/s 0.3 mm   Haze
10:51 AM -7.2 °C -15.5 °C -10.6 °C 77% 1007.8 hPa 1.2 km NNW 27.8 km/h / 7.7 m/s 50.0 km/h / 13.9 m/s 0.3 mm   Haze
10:58 AM -7.0 °C -16.0 °C -10.0 °C 80% 1007.3 hPa 1.6 km NNW 33.3 km/h / 9.3 m/s 46.3 km/h / 12.9 m/s N/A   Haze
11:05 AM -7.0 °C -16.4 °C -11.0 °C 74% 1007.3 hPa 1.6 km NNW 37.0 km/h / 10.3 m/s 55.6 km/h / 15.4 m/s N/A   Haze
11:31 AM -7.0 °C -15.8 °C -11.0 °C 74% 1007.7 hPa 2.0 km NNW 31.5 km/h / 8.7 m/s 59.3 km/h / 16.5 m/s N/A   Haze
11:51 AM -6.7 °C -15.4 °C -11.1 °C 71% 1008.1 hPa 2.0 km NNW 31.5 km/h / 8.7 m/s 63.0 km/h / 17.5 m/s N/A   Haze
12:02 PM -7.0 °C -16.6 °C -11.0 °C 74% 1007.7 hPa 0.8 km North 38.9 km/h / 10.8 m/s 70.4 km/h / 19.5 m/s N/A   Haze
12:14 PM -6.0 °C -15.1 °C -11.0 °C 68% 1008.0 hPa 3.2 km NNW 37.0 km/h / 10.3 m/s 51.9 km/h / 14.4 m/s 0.0 mm Snow Light Snow
12:22 PM -6.0 °C -15.1 °C -11.0 °C 68% 1008.0 hPa 2.4 km North 37.0 km/h / 10.3 m/s 63.0 km/h / 17.5 m/s 0.0 mm Snow Light Snow
12:51 PM -5.6 °C -13.5 °C -11.7 °C 63% 1008.7 hPa 3.2 km North 27.8 km/h / 7.7 m/s 68.5 km/h / 19.0 m/s 0.0 mm Snow Light Snow
1:02 PM -6.0 °C -15.8 °C -12.0 °C 63% 1008.4 hPa 2.8 km North 44.4 km/h / 12.3 m/s 57.4 km/h / 15.9 m/s 0.0 mm Snow Light Snow
1:07 PM -5.0 °C -12.9 °C -12.0 °C 59% 1008.7 hPa 4.8 km North 29.6 km/h / 8.2 m/s 57.4 km/h / 15.9 m/s 0.0 mm Snow Light Snow
1:29 PM -5.0 °C -13.9 °C -12.0 °C 59% 1009.0 hPa 3.2 km North 38.9 km/h / 10.8 m/s 59.3 km/h / 16.5 m/s 0.0 mm Snow Light Snow
1:41 PM -5.0 °C -12.7 °C -12.0 °C 59% 1009.4 hPa 6.4 km NNW 27.8 km/h / 7.7 m/s 61.1 km/h / 17.0 m/s 0.0 mm Snow Light Snow
1:51 PM -5.0 °C -13.8 °C -12.2 °C 58% 1010.0 hPa 11.3 km North 37.0 km/h / 10.3 m/s 51.9 km/h / 14.4 m/s 0.0 mm   Unknown
2:48 PM -6.0 °C -14.9 °C -12.0 °C 63% 1011.1 hPa 2.8 km NNW 35.2 km/h / 9.8 m/s 57.4 km/h / 15.9 m/s 0.0 mm Snow Light Snow
2:51 PM -5.6 °C -13.5 °C -12.2 °C 60% 1011.6 hPa 0.8 km NNW 27.8 km/h / 7.7 m/s 51.9 km/h / 14.4 m/s 0.0 mm Snow Snow
3:02 PM -6.0 °C -14.7 °C -13.0 °C 58% 1011.4 hPa 4.0 km NNW 33.3 km/h / 9.3 m/s 51.9 km/h / 14.4 m/s 0.0 mm   Unknown
3:09 PM -6.0 °C -14.5 °C -13.0 °C 58% 1011.7 hPa 12.9 km NNW 31.5 km/h / 8.7 m/s 50.0 km/h / 13.9 m/s 0.0 mm   Unknown
3:51 PM -6.1 °C -15.0 °C -13.3 °C 57% 1013.0 hPa 16.1 km NNW 35.2 km/h / 9.8 m/s 50.0 km/h / 13.9 m/s 0.0 mm   Mostly Cloudy
4:51 PM -7.2 °C -15.5 °C -12.2 °C 68% 1014.7 hPa 14.5 km NW 27.8 km/h / 7.7 m/s 42.6 km/h / 11.8 m/s 0.0 mm   Scattered Clouds
5:51 PM -7.2 °C -16.0 °C -12.8 °C 65% 1015.7 hPa 16.1 km NNW 31.5 km/h / 8.7 m/s 44.4 km/h / 12.3 m/s 0.0 mm   Mostly Cloudy
6:51 PM -7.8 °C -16.0 °C -14.4 °C 60% 1017.2 hPa 16.1 km NW 25.9 km/h / 7.2 m/s - N/A   Partly Cloudy
7:51 PM -8.3 °C -17.2 °C -15.0 °C 59% 1017.9 hPa 16.1 km NW 29.6 km/h / 8.2 m/s - N/A   Partly Cloudy
8:51 PM -8.9 °C -17.2 °C -15.6 °C 59% 1018.7 hPa 16.1 km NW 24.1 km/h / 6.7 m/s - N/A   Clear
9:51 PM -9.4 °C -17.1 °C -16.1 °C 59% 1019.2 hPa 16.1 km NW 20.4 km/h / 5.7 m/s - N/A   Clear
10:51 PM -9.4 °C -17.5 °C -16.7 °C 56% 1019.6 hPa 16.1 km NW 22.2 km/h / 6.2 m/s - N/A   Clear
11:51 PM -10.6 °C -16.3 °C -17.2 °C 59% 1020.4 hPa 16.1 km NW 11.1 km/h / 3.1 m/s - N/A   Clear